Location: Detroit
(42.3310°N, 83.0460°W)
Time: 01:33:51
(UTC-04:00)

A-11 Canister half - Pass Details

Date: 09 February 2023
Orbit: 1526 x 1682 km, 47.3° (Epoch: 20 March)

Event Time Altitude Azimuth Distance (km) Brightness Sun altitude
Rises 09:48:05 0° 293° (WNW) 4,685 11.0 19.8°
Reaches altitude 10° 09:51:06 10° 294° (WNW) 3,709 10.5 20.2°
Maximum altitude 10:00:30 87° 207° (SSW) 1,565 9.5 21.5°
Drops below altitude 10° 10:10:09 10° 119° (ESE) 3,802 12.6 22.7°
Sets 10:13:17 0° 119° (ESE) 4,807 12.8 23.1°
